CAPE
0 0 0 0 0 0 0 0 0 0 0 0 0 0 0 0 3 0 0 9 3 8 2 6 15 5 0 0 0 0 0 0 0 0 0 0 0 0 0 0 0 0 0 0
0 0 0 0 0 0 0 0 0 1 0 0 0 0 0 1 15 7 5 25 15 5 0 7 27 14 0 0 0 0 0 0 0 0 0 0 0 0 0 0 0 0 0 0
0 0 0 0 0 0 0 4 3 0 0 0 0 3 2 9 12 3 10 22 39 37 9 0 1 1 0 0 0 0 0 0 0 0 0 0 0 0 0 0 0 0 0 0
0 0 0 0 0 0 0 6 5 9 7 0 0 10 9 22 34 28 0 18 2 9 26 11 0 0 0 0 0 0 0 0 0 0 0 3 0 0 0 0 0 0 0 0
0 0 0 0 0 0 0 22 8 2 2 13 7 4 0 48 49 55 32 25 9 3 17 2 0 0 0 3 0 0 0 0 0 0 0 0 0 0 0 0 0 0 0 0
0 0 0 0 2 5 9 18 4 3 0 6 10 1 3 11 61 93 70 28 44 38 24 20 3 1 0 0 0 0 0 0 0 0 0 0 0 0 0 0 0 0 0 0
0 0 0 2 5 10 18 32 9 0 0 7 10 15 7 4 66 64 50 57 27 36 56 18 0 0 0 0 0 0 0 0 0 0 0 0 0 0 0 0 0 0 0 0
0 3 2 5 6 11 19 47 1 1 0 6 1 5 16 21 63 112 94 76 83 4 10 5 8 0 0 0 0 0 0 0 0 0 0 0 1 0 0 0 0 0 0 0
0 7 3 2 6 10 24 19 0 2 0 0 4 8 6 8 23 45 61 70 100 85 6 4 0 0 29 0 0 0 0 0 0 0 0 0 0 0 0 0 0 7 0 0
4 1 4 8 11 14 17 7 0 1 2 0 1 7 3 10 16 8 47 74 47 39 1 5 2 0 0 0 0 0 0 0 0 0 0 0 0 0 0 0 22 8 8 12
6 4 5 7 13 12 8 4 1 0 0 0 1 3 11 16 22 5 10 3 2 35 35 36 42 5 0 0 0 0 0 0 0 0 0 0 0 0 0 0 0 0 0 0
5 4 6 7 9 4 10 4 1 1 1 0 0 2 1 2 17 18 8 25 10 14 3 10 1 3 0 0 0 0 0 0 0 0 0 0 0 0 0 0 0 0 0 0
3 3 7 7 3 3 5 4 1 1 0 0 0 5 7 2 5 18 19 10 14 11 10 5 2 1 0 0 0 0 0 0 0 0 0 0 0 0 0 0 0 0 0 0
2 3 6 6 2 0 5 0 1 0 0 0 2 3 6 9 11 7 9 7 2 15 9 12 7 7 0 0 0 0 0 0 0 0 0 0 0 0 0 0 0 0 0 0
1 4 5 3 0 0 10 3 1 0 0 1 0 1 0 0 0 3 13 11 13 13 3 0 0 1 0 0 0 0 1 0 2 2 0 0 0 0 0 0 0 0 0 0
1 0 0 0 0 0 7 5 0 5 1 2 1 0 0 0 0 0 1 2 2 3 2 0 3 7 2 0 2 0 0 0 1 1 0 0 0 0 0 0 0 0 0 0
0 0 0 0 0 3 0 0 0 3 12 4 1 2 0 0 0 0 0 0 1 0 1 0 0 0 2 0 0 0 1 1 1 0 2 2 0 0 0 0 0 0 0 0
0 0 0 0 0 0 2 0 0 1 5 0 0 0 1 0 1 1 0 2 1 1 2 1 0 0 0 0 2 7 5 2 6 12 6 0 0 0 0 0 0 0 0 0
0 0 0 1 0 0 0 0 0 3 0 0 0 0 0 0 0 0 2 0 0 2 0 2 1 0 0 3 9 15 8 2 2 34 26 14 2 0 0 0 0 0 0 0
0 0 1 2 0 0 0 1 1 1 1 0 0 0 0 0 2 2 1 1 0 0 4 0 8 1 16 20 33 27 14 2 5 0 2 0 0 1 0 0 0 0 0 0
0 4 7 0 0 1 1 11 3 7 0 1 0 0 2 0 2 0 2 22 13 9 6 21 0 1 16 20 35 25 28 13 6 9 9 3 13 2 1 0 5 20 16 2
0 0 0 0 0 2 5 1 3 1 5 18 42 53 3 1 0 1 32 19 19 4 1 0 2 4 10 19 33 31 24 20 25 36 8 12 7 5 6 5 7 4 4 2
0 7 15 10 8 0 2 11 17 16 21 9 12 10 0 111 33 64 28 24 24 31 1 1 8 16 8 0 1 5 7 11 22 16 26 14 8 0 0 5 6 1 6 3
8 1 0 4 7 16 16 14 17 10 1 9 57 18 45 25 14 6 2 24 0 0 0 0 8 10 7 1 0 0 0 0 0 19 22 25 9 10 17 23 21 38 45 17
0 8 2 13 29 31 11 5 1 0 1 8 22 122 68 8 5 2 3 11 2 2 6 3 27 13 2 5 13 1 0 0 0 0 12 10 12 4 7 5 5 1 8 32
7 10 15 18 7 2 0 0 0 0 0 0 18 21 12 8 1 5 9 3 3 28 16 15 15 28 14 0 11 29 1 0 0 0 2 26 2 13 4 0 1 3 1 0
4 9 4 12 1 0 0 0 0 0 0 0 2 4 10 8 3 15 8 10 5 8 26 27 42 32 15 24 27 13 3 0 0 0 4 4 26 13 8 13 2 0 0 6
CIN
0 0 0 0 0 0 0 0 0 0 0 0 0 -1 0 0 -6 -1 -4 -6 -7 -15 -3 -2 -1 0 -1 0 0 0 0 0 0 0 0 0 0 0 0 0 0 0 0 0
0 0 0 0 0 0 0 0 0 -2 0 -1 0 -1 0 -6 -5 -12 -42 -10 -7 -14 0 -3 0 0 0 0 0 0 0 0 0 0 0 0 0 0 0 0 0 0 0 0
0 0 0 0 0 0 0 -2 -1 0 0 0 -2 -6 -4 -6 -6 -7 -36 -15 -4 -4 -9 -2 -1 0 0 0 0 0 0 0 0 0 0 0 0 0 0 0 0 0 0 0
0 0 0 0 0 0 0 -2 -1 -3 0 0 -1 -3 -6 -8 -5 -16 -3 -15 -16 -13 -3 -4 0 0 0 0 0 0 0 0 0 0 0 -7 0 0 0 0 0 0 0 0
0 0 0 0 0 0 0 0 0 -2 -1 -1 -2 -2 -3 -4 -7 -9 -6 -7 -56 -21 -5 -8 0 -4 0 0 0 0 0 0 0 0 0 0 0 0 0 0 0 0 0 0
0 0 0 0 -2 -2 -1 -3 -4 -1 -1 0 -1 -2 -3 -5 -5 -4 -4 -11 -5 -6 -7 -5 -7 -6 0 0 0 0 0 0 0 0 0 0 0 0 0 0 0 0 0 0
0 0 0 0 -1 -2 -1 0 -1 0 0 0 -1 -2 -1 -8 -3 -4 -3 -3 -10 -5 -7 -6 -3 0 0 0 0 0 0 0 0 0 0 0 0 0 0 -4 0 0 0 0
0 0 0 0 -2 -1 0 0 -3 0 0 0 -1 -1 0 -1 -2 -3 -19 -3 -9 -51 -5 -8 -3 -2 0 0 0 0 0 0 0 0 0 0 -5 0 0 0 0 -4 -1 0
0 0 0 -1 -2 -4 0 0 -6 0 0 0 0 0 -1 -1 -1 -4 -16 -18 -3 -5 -23 -16 0 0 -6 0 0 0 0 0 0 0 0 0 0 0 0 0 0 -58 0 0
0 -1 0 0 0 -1 0 0 0 0 0 0 0 0 0 -1 -1 -3 -4 -3 -7 -11 -8 -14 -5 0 0 0 0 0 0 0 0 0 0 0 0 0 0 0 -48 -116 -138 -39
0 0 0 0 0 0 0 0 -2 0 0 0 0 0 0 -1 0 -1 -11 -2 -24 -4 -6 -2 -2 -3 0 0 0 0 0 0 0 0 0 0 0 0 0 0 0 0 0 0
-1 0 0 0 0 0 0 0 0 0 0 0 0 -1 -2 -7 -1 -1 -2 0 -2 -3 0 -1 -1 -2 -6 0 0 0 0 0 0 0 0 0 0 0 0 0 0 0 0 0
0 0 0 0 0 0 0 0 0 0 0 0 0 -2 -2 -7 -8 -2 0 -1 -1 -1 -1 -2 -3 -1 -1 0 0 0 0 0 0 0 0 0 0 0 0 0 0 0 0 0
0 0 0 -1 0 0 -2 0 0 0 0 0 -2 -2 -1 -1 -3 -1 -1 0 -2 0 -1 0 -1 0 0 -1 -1 0 0 0 0 0 0 0 0 0 0 0 0 0 0 0
-1 0 0 0 0 0 0 -1 0 0 -1 0 0 -2 0 0 0 -3 -1 -2 -1 0 0 0 0 0 0 0 0 0 -3 0 -1 -1 0 0 0 0 0 0 0 0 0 0
0 0 0 0 0 0 -1 0 -2 -2 0 -1 0 -2 0 0 0 0 -2 0 0 0 0 0 0 0 0 0 0 0 0 0 -2 0 0 0 0 0 0 0 0 0 0 0
0 0 0 0 0 -5 -2 0 -1 -9 0 0 0 0 0 0 0 0 0 -1 0 0 0 0 0 0 0 0 0 0 0 0 0 0 0 0 0 0 0 0 0 0 0 0
0 0 0 0 0 0 0 0 0 -1 0 0 0 0 -1 0 0 0 0 0 0 0 0 0 0 0 0 0 0 0 0 0 -1 -1 -1 0 0 0 0 0 0 0 0 0
0 0 0 -3 0 0 0 0 0 0 0 0 0 0 0 0 0 0 0 0 0 0 0 0 0 0 0 0 0 0 0 0 0 -10 -12 -2 -8 0 0 0 0 0 0 0
0 0 0 0 0 0 0 0 0 0 0 0 0 0 0 0 0 0 0 0 0 0 -2 0 -1 0 0 0 0 0 0 0 -20 -1 0 -2 -1 0 0 0 0 0 0 0
0 -12 -1 0 0 0 0 -1 0 -1 0 0 -6 0 0 0 0 0 -1 -1 -9 -7 -4 -2 0 0 0 -1 -1 -1 0 0 0 0 0 -9 -2 -1 -1 -1 -2 -3 -5 -4
0 0 0 0 0 -4 -1 -1 0 -1 -3 -4 -2 -3 -17 -1 -1 0 -9 -9 -6 -2 -12 0 -4 0 -3 -2 -1 -1 0 -1 -1 0 0 0 -47 0 -5 -5 0 0 0 0
0 -12 -12 -2 -1 -3 0 0 -1 -5 -2 -2 -3 -30 -3 -2 -8 -5 -2 -1 -3 -1 0 0 -1 0 -3 0 0 0 -4 0 -6 -2 -2 -4 0 0 0 0 0 0 0 0
-88 -1 0 -3 -2 -3 -4 -5 -3 -3 -2 -4 -2 -31 -7 -1 -5 -2 -7 -3 0 0 -1 0 0 0 -2 -1 0 0 0 0 -1 0 -3 -3 -1 0 0 -2 -3 0 0 0
0 -5 -3 -3 -4 -4 -3 -2 -2 0 -3 -3 -14 -2 -1 -2 -8 -3 -3 -1 -1 0 -2 0 -1 -3 -3 -4 -2 -1 0 0 0 0 -1 -2 -5 -10 -8 -8 -3 -14 -3 0
-2 -2 -3 -3 -3 -4 0 0 0 0 0 -2 -4 -3 -4 -2 -5 -2 -1 -1 -1 0 -2 -5 -11 -3 -6 -4 -2 0 -1 0 0 0 -4 0 -1 -2 -8 -5 -6 -6 -4 -4
-100 -2 -3 -3 -3 0 0 0 0 0 0 0 -2 -2 -1 -2 -2 -1 -3 -1 -5 -1 -3 -1 -3 -3 -7 -3 -1 -2 0 0 0 0 -3 -3 -1 0 0 0 -1 0 0 -2
Wind_Speed
34 38 40 46 50 53 44 31 33 29 26 29 22 25 29 30 32 27 28 34 37 35 35 38 36 35 32 29 31 40 48 55 55 50 48 42 43 45 36 39 40 46 39 30
32 35 39 45 47 48 43 34 30 26 35 26 31 31 33 33 27 29 26 33 32 34 36 38 34 32 32 35 31 29 29 49 58 54 48 42 55 45 51 41 40 48 42 30
31 32 36 41 42 42 37 31 35 29 25 26 29 33 31 28 24 25 30 36 31 33 35 34 34 32 29 34 34 31 32 41 53 56 47 37 41 47 43 53 41 42 45 17
30 30 32 35 37 36 31 29 23 18 23 19 13 15 23 29 24 16 24 31 26 32 34 33 32 33 33 29 26 27 33 44 46 52 45 38 37 41 42 43 45 40 37 33
28 28 29 28 27 32 24 23 24 24 21 18 14 9 15 21 22 29 34 34 26 31 32 31 34 33 32 29 27 25 27 38 40 48 45 40 40 41 45 44 45 38 42 31
24 24 24 20 23 25 19 22 21 21 18 16 14 12 10 10 13 19 11 31 34 33 31 32 34 34 35 36 34 29 26 28 36 49 41 42 44 36 43 45 40 41 38 32
20 20 15 15 19 17 14 15 18 17 15 12 10 10 8 7 6 7 5 27 32 32 35 35 36 36 38 38 37 32 31 32 34 42 37 47 38 31 34 32 42 39 36 35
17 15 11 13 15 16 15 15 15 13 14 11 9 8 8 6 6 2 9 9 24 4 32 34 34 35 35 40 38 36 32 33 34 36 36 33 34 31 36 32 28 29 41 37
15 12 11 11 13 15 14 11 10 9 12 13 10 8 6 6 9 2 5 6 12 19 24 29 34 29 30 38 45 33 34 33 34 34 37 40 30 33 25 30 36 25 26 24
14 11 11 10 10 14 14 13 7 9 8 5 6 8 7 7 8 6 5 4 14 17 19 23 29 28 24 27 39 40 39 39 42 39 37 27 23 18 17 31 27 18 17 23
11 13 10 9 8 10 14 11 8 7 8 5 1 2 1 2 3 7 4 6 5 11 13 17 18 19 22 24 18 25 33 39 45 42 45 38 11 16 16 17 14 14 14 14
14 14 8 8 6 9 14 13 10 8 10 8 3 8 7 10 8 6 8 6 6 12 11 15 18 25 23 24 29 20 30 30 36 38 48 34 24 20 17 19 18 18 19 20
13 8 9 6 6 8 13 15 15 15 13 8 8 13 12 12 10 11 9 9 11 11 8 11 18 22 25 31 32 29 31 28 33 40 42 45 33 31 27 27 27 25 27 28
7 8 6 5 4 13 15 17 15 16 17 16 20 23 15 10 7 10 12 10 9 8 8 11 13 15 20 27 34 40 37 40 40 44 43 41 45 42 40 38 37 36 35 35
7 6 1 3 13 19 20 19 18 19 19 19 18 17 22 19 17 12 11 11 11 11 13 13 12 11 12 22 26 34 36 44 50 56 50 50 51 46 43 43 47 43 42 41
4 3 4 14 20 20 17 19 20 19 19 21 23 21 21 18 15 19 18 17 14 15 15 14 14 11 11 11 14 23 36 44 51 60 59 63 61 57 54 51 49 46 43 43
5 13 21 22 21 19 19 21 23 22 20 21 22 22 23 23 23 23 24 26 28 25 20 18 15 14 15 11 3 20 27 34 45 46 46 56 60 63 57 54 51 50 51 48
15 20 20 21 24 24 22 24 23 18 20 22 25 23 22 23 26 26 23 26 25 26 25 23 22 18 17 15 16 21 29 26 24 32 39 42 44 46 53 53 53 54 53 52
18 19 17 15 16 17 18 19 18 16 21 25 24 24 22 16 17 20 22 24 24 24 28 28 29 30 31 16 24 31 37 29 29 26 32 39 42 41 41 43 47 53 53 50
19 17 15 17 17 21 20 17 18 18 19 19 20 20 19 16 17 16 18 19 23 25 26 26 33 34 19 21 27 29 40 42 33 32 25 22 16 21 25 29 34 41 46 50
16 16 20 19 19 17 16 16 19 19 17 16 14 16 18 18 19 17 16 17 18 25 26 27 30 32 20 22 28 41 38 34 37 26 17 15 9 11 16 21 25 28 36 46
18 18 18 18 17 17 18 21 19 18 19 17 14 16 15 17 17 18 17 19 20 25 24 24 31 21 15 18 22 27 28 33 34 26 24 25 23 18 12 9 11 10 12 10
14 16 17 17 20 23 22 24 23 20 17 9 7 19 21 15 15 17 21 22 24 21 24 25 28 18 19 16 16 21 25 28 36 39 29 25 22 16 14 13 14 20 20 14
18 19 23 21 20 22 23 25 30 31 29 10 28 25 19 18 23 22 22 22 23 24 27 26 24 34 32 27 23 25 24 25 26 28 32 29 27 24 19 14 12 10 11 10
20 19 21 22 19 25 29 30 31 33 29 29 22 23 20 24 22 23 23 23 24 24 27 24 29 32 34 36 38 32 27 25 18 19 17 26 27 23 22 21 21 18 14 16
18 19 19 13 14 13 7 4 4 7 3 2 21 24 22 23 22 23 26 25 27 28 25 26 30 32 31 33 35 35 35 33 22 21 19 16 16 22 20 16 15 15 16 16
17 18 22 19 22 17 17 17 22 11 25 28 22 25 24 21 22 24 24 25 25 27 26 26 27 31 31 32 32 33 33 33 33 32 29 20 24 21 19 19 16 17 16 15
Wind_Direction
6 3 1 349 346 345 1 6 359 357 6 352 356 343 339 338 334 336 334 302 275 265 268 259 254 250 251 273 264 242 236 233 235 237 235 236 235 234 233 238 237 231 241 251
4 4 360 350 350 354 359 0 357 12 358 352 346 337 333 336 338 336 332 291 284 270 261 255 247 258 266 268 263 249 243 228 227 233 239 227 228 232 231 238 237 225 234 252
2 3 1 355 356 360 5 2 357 5 11 4 351 342 341 342 345 350 311 276 289 268 256 256 248 257 264 269 265 257 243 232 229 227 231 231 225 232 233 229 236 233 227 258
359 1 1 1 0 4 8 10 21 21 12 14 355 352 348 343 348 360 321 278 289 273 254 262 249 255 268 266 270 259 241 233 233 235 234 240 230 234 233 232 235 234 236 241
357 360 2 4 7 7 11 14 15 15 360 1 7 359 6 357 356 341 291 284 286 269 259 258 252 258 254 249 263 258 253 232 235 234 235 244 242 232 234 235 234 239 235 244
357 359 2 4 9 14 20 19 14 12 12 10 10 14 3 347 355 359 347 273 277 272 265 265 258 256 253 249 253 253 249 241 236 228 234 237 239 235 231 233 234 234 235 239
353 356 353 359 8 14 14 15 17 17 8 10 6 354 341 335 335 270 244 263 275 279 283 275 264 252 248 246 246 248 245 243 239 230 236 232 239 245 241 242 235 233 236 233
348 349 334 352 3 9 7 12 19 22 12 13 352 4 0 333 290 287 230 218 254 283 272 258 255 251 243 239 242 241 245 243 239 229 232 237 239 244 233 239 238 235 236 233
344 338 310 346 358 6 7 11 26 35 20 28 44 356 26 7 40 78 136 74 229 248 278 254 242 240 247 237 236 240 239 242 238 235 231 232 245 247 244 240 235 258 248 237
346 311 301 344 354 7 12 18 45 47 31 21 46 47 52 67 57 64 116 239 246 229 281 255 244 243 265 239 231 229 233 235 233 233 230 241 248 277 262 228 236 264 263 248
333 289 301 347 346 8 15 23 61 73 46 5 49 115 121 164 149 101 102 116 116 239 268 257 255 252 257 243 255 234 233 233 232 233 229 230 300 273 242 249 262 262 260 262
289 284 313 343 315 12 23 32 64 94 54 47 248 247 223 210 200 181 126 161 143 144 213 268 263 262 268 259 241 258 241 243 239 238 235 247 276 273 276 275 262 263 261 266
287 311 346 339 274 36 35 40 57 62 54 62 81 72 73 127 153 164 155 142 137 150 155 195 240 270 278 254 250 271 263 266 255 250 247 248 262 263 267 269 263 266 266 265
325 330 319 270 69 56 66 61 79 72 74 79 68 60 74 96 156 166 166 161 184 184 192 175 178 238 285 271 271 262 265 267 260 257 254 256 253 258 262 265 266 264 266 265
334 309 283 198 86 70 79 87 92 87 89 83 89 91 87 90 95 115 147 142 145 135 127 133 149 178 207 258 286 273 274 265 258 253 259 260 256 260 264 263 258 262 263 264
357 90 159 103 87 81 88 85 87 99 102 93 84 79 78 88 102 95 99 107 124 123 116 114 122 139 149 154 230 263 284 280 270 262 263 260 259 260 260 260 262 262 263 263
119 104 86 86 92 93 96 95 90 97 102 90 83 86 83 83 88 91 92 91 86 88 94 102 102 104 108 112 93 288 285 269 267 268 270 263 259 255 258 259 260 263 262 264
106 99 102 98 85 86 96 86 92 112 98 94 85 90 92 86 81 80 87 84 85 80 77 81 81 87 92 73 330 320 313 295 262 245 267 270 268 263 255 255 256 258 260 262
105 102 107 105 101 104 107 111 109 113 100 84 81 76 76 91 87 85 85 84 80 80 69 70 71 67 60 10 336 336 336 315 310 335 308 283 264 260 257 254 255 254 256 260
103 104 105 87 90 83 105 112 96 93 85 88 76 70 69 78 77 83 84 88 78 71 68 76 63 62 37 3 356 353 353 5 9 7 336 317 285 253 253 257 260 260 259 260
86 92 66 79 90 99 101 90 63 60 68 72 69 63 56 67 64 69 81 79 83 66 65 60 57 55 13 10 360 2 6 7 11 6 2 1 322 266 261 261 269 276 273 265
63 77 92 84 85 74 58 43 49 47 44 45 39 40 47 51 61 61 68 67 67 56 59 63 50 53 9 24 6 5 9 10 13 15 21 21 27 23 14 21 347 334 321 317
84 80 65 71 56 35 30 15 21 24 27 24 359 23 22 52 57 47 40 38 41 51 44 48 40 326 337 353 7 1 2 6 13 19 20 17 21 33 37 40 32 34 30 35
59 45 32 37 34 21 14 1 349 352 355 21 2 11 30 33 22 24 24 31 29 29 22 28 31 18 344 338 340 346 353 356 1 7 17 20 23 26 24 22 8 10 20 32
61 68 52 41 36 12 356 350 348 344 356 354 9 15 25 17 23 24 18 13 7 13 6 13 5 5 7 5 12 347 342 343 345 347 357 10 15 19 22 19 18 21 24 31
81 82 70 83 73 70 66 41 330 314 331 330 34 20 23 19 23 14 6 4 355 356 6 3 355 355 359 360 359 2 14 353 331 334 336 339 352 5 9 10 13 16 22 31
82 69 54 62 53 59 54 51 42 54 37 23 35 25 26 33 23 17 18 8 10 4 6 5 4 354 351 352 355 352 356 1 11 3 2 331 3 354 355 355 353 1 5 11